| time (UTC) | temp F | wind direction | speed knots | gust knots | rain 1hr in | rain 24hr in | rain mn in | humidity % | barometer mb |
| 20260510115952 | 73 | 292 | 1.7 | 7.0 | 0.00 | 0.61 | 0.00 | 50 | 1009.4 |
| 20260510115452 | 75 | 337 | 3.5 | 5.2 | 0.00 | 0.61 | 0.00 | 50 | 1009.5 |
| 20260510114951 | 75 | 157 | 0.0 | 10.4 | 0.00 | 0.61 | 0.00 | 51 | 1009.4 |
| 20260510114451 | 75 | 225 | 5.2 | 7.8 | 0.00 | 0.61 | 0.00 | 50 | 1009.7 |
| 20260510113951 | 75 | 202 | 4.3 | 7.8 | 0.00 | 0.61 | 0.00 | 52 | 1009.7 |
| 20260510113450 | 74 | 292 | 5.2 | 7.0 | 0.00 | 0.61 | 0.00 | 51 | 1010.1 |
| 20260510112950 | 74 | 292 | 6.1 | 7.8 | 0.00 | 0.79 | 0.00 | 53 | 1010.2 |
| 20260510112450 | 73 | 292 | 1.7 | 10.4 | 0.00 | 0.79 | 0.00 | 52 | 1010.2 |
| 20260510111949 | 73 | 292 | 3.5 | 5.2 | 0.00 | 0.79 | 0.00 | 53 | 1010.2 |
| 20260510111449 | 73 | 225 | 1.7 | 6.1 | 0.00 | 0.79 | 0.00 | 54 | 1010.3 |
| 20260510110949 | 73 | 292 | 3.5 | 8.7 | 0.00 | 0.79 | 0.00 | 54 | 1010.3 |
| 20260510110449 | 73 | 247 | 4.3 | 7.0 | 0.00 | 0.79 | 0.00 | 52 | 1010.3 |
| 20260510105948 | 73 | 292 | 2.6 | 7.8 | 0.00 | 0.79 | 0.00 | 52 | 1010.5 |
| 20260510105448 | 73 | 292 | 0.0 | 11.3 | 0.00 | 0.79 | 0.00 | 53 | 1010.7 |
| 20260510104948 | 73 | 315 | 4.3 | 6.1 | 0.00 | 0.79 | 0.00 | 54 | 1010.7 |
| 20260510104447 | 74 | 292 | 6.1 | 9.6 | 0.00 | 0.79 | 0.00 | 54 | 1010.8 |
| 20260510103947 | 73 | 292 | 0.9 | 7.8 | 0.00 | 0.79 | 0.00 | 58 | 1010.9 |
| 20260510103447 | 73 | 292 | 0.0 | 8.7 | 0.00 | 0.79 | 0.00 | 58 | 1011.0 |
| 20260510102947 | 72 | 202 | 5.2 | 7.0 | 0.00 | 0.81 | 0.00 | 60 | 1011.0 |
| 20260510102446 | 72 | 292 | 2.6 | 7.0 | 0.00 | 0.81 | 0.00 | 60 | 1011.2 |
| 20260510101946 | 71 | 292 | 1.7 | 13.0 | 0.00 | 0.81 | 0.00 | 61 | 1011.2 |
| 20260510101446 | 71 | 247 | 7.8 | 8.7 | 0.00 | 0.81 | 0.00 | 60 | 1011.2 |
| 20260510100945 | 71 | 292 | 2.6 | 10.4 | 0.00 | 0.81 | 0.00 | 60 | 1011.4 |
| 20260510100445 | 71 | 292 | 4.3 | 10.4 | 0.00 | 0.81 | 0.00 | 61 | 1011.3 |
| 20260510095945 | 70 | 315 | 3.5 | 6.1 | 0.00 | 0.81 | 0.00 | 62 | 1011.3 |
| 20260510095445 | 70 | 292 | 6.1 | 10.4 | 0.00 | 0.81 | 0.00 | 61 | 1011.4 |
| 20260510094944 | 70 | 292 | 5.2 | 8.7 | 0.00 | 0.81 | 0.00 | 63 | 1011.4 |
| 20260510094444 | 69 | 315 | 5.2 | 5.2 | 0.00 | 0.81 | 0.00 | 65 | 1011.5 |
| 20260510093944 | 68 | 292 | 1.7 | 8.7 | 0.00 | 0.81 | 0.00 | 66 | 1011.5 |
| 20260510093443 | 68 | 292 | 1.7 | 5.2 | 0.00 | 0.81 | 0.00 | 66 | 1011.6 |
| 20260510092943 | 68 | 337 | 1.7 | 7.8 | 0.00 | 0.85 | 0.00 | 65 | 1011.7 |
| 20260510092443 | 68 | 292 | 3.5 | 7.8 | 0.00 | 0.85 | 0.00 | 66 | 1011.7 |
| 20260510091942 | 68 | 315 | 1.7 | 7.0 | 0.00 | 0.85 | 0.00 | 68 | 1011.8 |
| 20260510091442 | 68 | 292 | 3.5 | 7.0 | 0.00 | 0.85 | 0.00 | 67 | 1011.9 |
| 20260510090942 | 67 | 292 | 7.0 | 7.8 | 0.00 | 0.85 | 0.00 | 68 | 1011.9 |
| 20260510090442 | 67 | 337 | 0.0 | 5.2 | 0.00 | 0.85 | 0.00 | 68 | 1011.9 |
| 20260510085941 | 66 | 292 | 3.5 | 7.0 | 0.00 | 0.85 | 0.00 | 69 | 1012.0 |
| 20260510085441 | 66 | 292 | 1.7 | 8.7 | 0.00 | 0.85 | 0.00 | 69 | 1012.0 |
| 20260510084941 | 66 | 292 | 1.7 | 7.8 | 0.00 | 0.85 | 0.00 | 69 | 1012.0 |
| 20260510084440 | 66 | 292 | 0.9 | 8.7 | 0.00 | 0.85 | 0.00 | 70 | 1012.1 |
| 20260510083940 | 67 | 292 | 6.1 | 8.7 | 0.00 | 0.85 | 0.00 | 69 | 1012.1 |
| 20260510083440 | 68 | 247 | 3.5 | 10.4 | 0.00 | 0.85 | 0.00 | 69 | 1012.0 |
| 20260510082940 | 67 | 292 | 1.7 | 7.0 | 0.00 | 0.87 | 0.00 | 71 | 1012.1 |
| 20260510082439 | 67 | 292 | 2.6 | 7.0 | 0.00 | 0.87 | 0.00 | 72 | 1012.1 |
| 20260510081939 | 67 | 292 | 0.0 | 8.7 | 0.00 | 0.87 | 0.00 | 73 | 1012.1 |
| 20260510081439 | 66 | 292 | 4.3 | 7.0 | 0.00 | 0.87 | 0.00 | 74 | 1012.1 |
| 20260510080938 | 65 | 292 | 1.7 | 7.8 | 0.00 | 0.87 | 0.00 | 75 | 1012.0 |
| 20260510080438 | 65 | 292 | 0.9 | 4.3 | 0.00 | 0.87 | 0.00 | 76 | 1011.9 |
| 20260510075938 | 65 | 292 | 0.9 | 6.1 | 0.00 | 0.87 | 0.00 | 76 | 1011.9 |
| 20260510075439 | 65 | 292 | 0.0 | 5.2 | 0.00 | 0.87 | 0.00 | 75 | 1012.0 |
| 20260510074937 | 65 | 292 | 3.5 | 7.8 | 0.00 | 0.87 | 0.00 | 75 | 1012.2 |
| 20260510074437 | 66 | 315 | 6.1 | 9.6 | 0.00 | 0.87 | 0.00 | 76 | 1012.1 |
| 20260510073937 | 66 | 292 | 5.2 | 7.8 | 0.00 | 0.87 | 0.00 | 78 | 1012.1 |
| 20260510073436 | 65 | 292 | 3.5 | 6.1 | 0.00 | 0.87 | 0.00 | 81 | 1012.1 |
| 20260510072936 | 64 | 292 | 0.9 | 5.2 | 0.00 | 0.87 | 0.00 | 82 | 1012.1 |
| 20260510072436 | 63 | 292 | 2.6 | 5.2 | 0.00 | 0.87 | 0.00 | 82 | 1012.1 |
| 20260510071935 | 63 | 292 | 0.0 | 5.2 | 0.00 | 0.87 | 0.00 | 83 | 1012.1 |
| 20260510071435 | 62 | 292 | 2.6 | 3.5 | 0.00 | 0.87 | 0.00 | 85 | 1012.1 |
| 20260510070935 | 61 | 315 | 0.9 | 5.2 | 0.00 | 0.87 | 0.00 | 86 | 1012.2 |
| 20260510070435 | 60 | 292 | 1.7 | 5.2 | 0.00 | 0.87 | 0.00 | 86 | 1012.2 |
| 20260510065934 | 60 | 292 | 2.6 | 2.6 | 0.00 | 0.87 | 0.00 | 86 | 1012.1 |
| 20260510065434 | 60 | 292 | 0.9 | 3.5 | 0.00 | 0.87 | 0.00 | 86 | 1012.2 |
| 20260510064934 | 60 | 292 | 0.0 | 4.3 | 0.00 | 0.87 | 0.00 | 87 | 1012.2 |
| 20260510064433 | 60 | 292 | 0.0 | 1.7 | 0.00 | 0.87 | 0.00 | 88 | 1012.1 |
| 20260510063933 | 60 | 292 | 0.0 | 0.9 | 0.00 | 0.87 | 0.00 | 89 | 1012.1 |
| 20260510063433 | 59 | 292 | 0.0 | 1.7 | 0.00 | 0.87 | 0.00 | 90 | 1012.2 |
| 20260510062932 | 59 | 292 | 1.7 | 1.7 | 0.00 | 0.87 | 0.00 | 91 | 1012.2 |
| 20260510062432 | 59 | 292 | 0.9 | 1.7 | 0.00 | 0.87 | 0.00 | 91 | 1012.3 |
| 20260510061932 | 59 | 292 | 0.0 | 2.6 | 0.00 | 0.87 | 0.00 | 92 | 1012.3 |
| 20260510061432 | 58 | 315 | 1.7 | 1.7 | 0.00 | 0.87 | 0.00 | 92 | 1012.3 |
| 20260510060931 | 58 | 315 | 0.0 | 1.7 | 0.00 | 0.87 | 0.00 | 92 | 1012.3 |
| 20260510060431 | 57 | 315 | 0.0 | 1.7 | 0.00 | 0.87 | 0.00 | 92 | 1012.4 |
| 20260510055931 | 57 | 315 | 0.0 | 2.6 | 0.00 | 0.87 | 0.00 | 93 | 1012.3 |
| 20260510055430 | 57 | 315 | 2.6 | 4.3 | 0.00 | 0.87 | 0.00 | 93 | 1012.3 |
| 20260510054930 | 57 | 315 | 4.3 | 4.3 | 0.00 | 0.87 | 0.00 | 93 | 1012.3 |
| 20260510054430 | 57 | 315 | 3.5 | 3.5 | 0.00 | 0.87 | 0.00 | 93 | 1012.4 |
| 20260510053930 | 56 | 292 | 0.0 | 0.0 | 0.00 | 0.87 | 0.00 | 93 | 1012.4 |
| 20260510053429 | 56 | 292 | 0.0 | 1.7 | 0.00 | 0.87 | 0.00 | 93 | 1012.4 |
| 20260510052929 | 55 | 292 | 0.0 | 0.0 | 0.00 | 0.87 | 0.00 | 93 | 1012.5 |
| 20260510052429 | 55 | 292 | 0.0 | 0.0 | 0.00 | 0.87 | 0.00 | 93 | 1012.4 |
| 20260510051928 | 54 | 292 | 0.0 | 1.7 | 0.00 | 0.87 | 0.00 | 92 | 1012.4 |
| 20260510051428 | 54 | 292 | 0.0 | 0.0 | 0.00 | 0.87 | 0.00 | 92 | 1012.4 |
| 20260510050928 | 53 | 292 | 0.0 | 0.9 | 0.00 | 0.87 | 0.00 | 92 | 1012.4 |
| 20260510050428 | 53 | 292 | 0.0 | 0.0 | 0.02 | 0.87 | 0.00 | 92 | 1012.5 |
| 20260510045927 | 53 | 292 | 0.0 | 0.9 | 0.02 | 0.87 | 0.00 | 92 | 1012.5 |
| 20260510045427 | 53 | 292 | 0.0 | 1.7 | 0.02 | 0.87 | 0.00 | 92 | 1012.6 |
| 20260510044927 | 53 | 292 | 0.9 | 1.7 | 0.02 | 0.87 | 0.00 | 92 | 1012.5 |
| 20260510044426 | 53 | 292 | 1.7 | 2.6 | 0.02 | 0.87 | 0.00 | 92 | 1012.5 |
| 20260510043926 | 53 | 292 | 0.0 | 3.5 | 0.02 | 0.87 | 0.00 | 92 | 1012.5 |
| 20260510043426 | 53 | 292 | 0.9 | 0.9 | 0.02 | 0.87 | 0.00 | 92 | 1012.6 |
| 20260510042925 | 52 | 292 | 0.0 | 2.6 | 0.02 | 0.87 | 0.00 | 92 | 1012.6 |
| 20260510042425 | 52 | 292 | 0.0 | 2.6 | 0.04 | 0.87 | 0.00 | 92 | 1012.5 |
| 20260510041925 | 52 | 315 | 0.0 | 1.7 | 0.04 | 0.87 | 0.00 | 92 | 1012.5 |
| 20260510041425 | 52 | 315 | 0.0 | 3.5 | 0.04 | 0.87 | 0.00 | 92 | 1012.5 |
| 20260510040924 | 52 | 315 | 3.5 | 5.2 | 0.04 | 0.87 | 0.00 | 92 | 1012.4 |
| 20260510040424 | 52 | 292 | 4.3 | 4.3 | 0.02 | 0.85 | 0.00 | 92 | 1012.3 |
| 20260510035924 | 52 | 292 | 2.6 | 2.6 | 0.04 | 0.85 | 0.00 | 92 | 1012.3 |
| 20260510035423 | 52 | 292 | 1.7 | 3.5 | 0.04 | 0.85 | 0.00 | 92 | 1012.2 |
| 20260510034923 | 52 | 292 | 1.7 | 3.5 | 0.04 | 0.85 | 0.00 | 92 | 1012.1 |
| 20260510034423 | 52 | 292 | 1.7 | 2.6 | 0.04 | 0.85 | 0.00 | 92 | 1012.2 |
| 20260510033922 | 52 | 292 | 1.7 | 2.6 | 0.04 | 0.85 | 0.00 | 92 | 1012.1 |
| 20260510033422 | 52 | 292 | 1.7 | 1.7 | 0.04 | 0.85 | 0.00 | 92 | 1012.1 |
| 20260510032922 | 52 | 292 | 0.9 | 0.9 | 0.04 | 0.85 | 0.00 | 92 | 1012.0 |
| 20260510032422 | 52 | 292 | 0.0 | 1.7 | 0.02 | 0.83 | 0.00 | 92 | 1012.0 |
| 20260510031921 | 52 | 292 | 0.0 | 0.9 | 0.02 | 0.83 | 0.00 | 92 | 1011.9 |
| 20260510031421 | 52 | 292 | 0.0 | 0.0 | 0.02 | 0.83 | 0.00 | 92 | 1011.8 |
| 20260510030921 | 52 | 292 | 0.0 | 0.0 | 0.04 | 0.83 | 0.00 | 92 | 1011.8 |
| 20260510030420 | 52 | 292 | 0.0 | 0.0 | 0.02 | 0.81 | 0.00 | 92 | 1011.8 |
| 20260510025920 | 52 | 292 | 0.0 | 0.9 | 0.02 | 0.81 | 0.00 | 92 | 1011.8 |
| 20260510025420 | 52 | 292 | 0.9 | 1.7 | 0.04 | 0.81 | 0.00 | 92 | 1011.8 |
| 20260510024920 | 52 | 292 | 0.9 | 1.7 | 0.04 | 0.81 | 0.00 | 92 | 1011.8 |
| 20260510024419 | 52 | 292 | 0.9 | 1.7 | 0.04 | 0.81 | 0.00 | 92 | 1011.8 |
| 20260510023919 | 52 | 292 | 0.0 | 2.6 | 0.04 | 0.81 | 0.00 | 92 | 1011.8 |
| 20260510023419 | 52 | 292 | 0.0 | 2.6 | 0.06 | 0.81 | 0.00 | 92 | 1011.7 |
| 20260510022918 | 52 | 292 | 0.9 | 2.6 | 0.06 | 0.81 | 0.00 | 92 | 1011.7 |
| 20260510022418 | 52 | 292 | 2.6 | 4.3 | 0.08 | 0.81 | 0.00 | 92 | 1011.6 |
| 20260510021918 | 52 | 202 | 0.0 | 4.3 | 0.08 | 0.81 | 0.00 | 92 | 1011.6 |
| 20260510021417 | 52 | 292 | 0.9 | 1.7 | 0.08 | 0.81 | 0.00 | 92 | 1011.8 |
| 20260510020917 | 52 | 292 | 0.9 | 4.3 | 0.08 | 0.79 | 0.00 | 92 | 1011.7 |
| 20260510020417 | 52 | 292 | 0.9 | 5.2 | 0.08 | 0.79 | 0.00 | 92 | 1011.8 |
| 20260510015917 | 52 | 292 | 2.6 | 4.3 | 0.08 | 0.79 | 0.00 | 92 | 1011.8 |
| 20260510015416 | 52 | 292 | 4.3 | 5.2 | 0.06 | 0.77 | 0.00 | 92 | 1011.9 |
| 20260510014916 | 52 | 292 | 3.5 | 4.3 | 0.08 | 0.77 | 0.00 | 92 | 1011.9 |
| 20260510014416 | 52 | 292 | 1.7 | 5.2 | 0.08 | 0.77 | 0.00 | 92 | 1011.8 |
| 20260510013915 | 52 | 292 | 5.2 | 7.0 | 0.06 | 0.75 | 0.00 | 92 | 1011.8 |
| 20260510013415 | 52 | 292 | 2.6 | 6.1 | 0.08 | 0.75 | 0.00 | 92 | 1011.8 |
| 20260510012915 | 52 | 292 | 3.5 | 6.1 | 0.08 | 0.75 | 0.00 | 92 | 1011.8 |
| 20260510012415 | 52 | 292 | 0.9 | 6.1 | 0.06 | 0.73 | 0.00 | 92 | 1011.8 |
| 20260510011914 | 52 | 292 | 2.6 | 5.2 | 0.06 | 0.73 | 0.00 | 92 | 1011.8 |
| 20260510011414 | 52 | 292 | 0.9 | 4.3 | 0.04 | 0.71 | 0.00 | 92 | 1011.7 |
| 20260510010914 | 52 | 292 | 0.9 | 5.2 | 0.04 | 0.71 | 0.00 | 92 | 1011.7 |
| 20260510010413 | 52 | 292 | 2.6 | 6.1 | 0.06 | 0.71 | 0.00 | 92 | 1011.7 |
| 20260510005913 | 52 | 292 | 1.7 | 6.1 | 0.06 | 0.71 | 0.00 | 92 | 1011.7 |
| 20260510005413 | 52 | 292 | 2.6 | 7.8 | 0.06 | 0.71 | 0.00 | 92 | 1011.7 |
| 20260510004912 | 52 | 247 | 7.8 | 8.7 | 0.06 | 0.69 | 0.00 | 92 | 1011.6 |
| 20260510004412 | 52 | 292 | 2.6 | 7.0 | 0.06 | 0.69 | 0.00 | 92 | 1011.6 |
| 20260510003912 | 53 | 315 | 1.7 | 7.0 | 0.04 | 0.67 | 0.00 | 92 | 1011.6 |
| 20260510003412 | 53 | 315 | 3.5 | 5.2 | 0.04 | 0.67 | 0.00 | 92 | 1011.5 |
| 20260510002911 | 53 | 247 | 3.5 | 7.0 | 0.04 | 0.67 | 0.00 | 92 | 1011.5 |
| 20260510002411 | 53 | 292 | 1.7 | 8.7 | 0.04 | 0.67 | 0.00 | 92 | 1011.5 |
| 20260510001911 | 53 | 315 | 2.6 | 7.0 | 0.04 | 0.67 | 0.00 | 92 | 1011.6 |
| 20260510001410 | 53 | 247 | 3.5 | 6.1 | 0.04 | 0.67 | 0.00 | 92 | 1011.5 |
| 20260510000910 | 53 | 315 | 2.6 | 7.0 | 0.04 | 0.65 | 0.00 | 92 | 1011.5 |
| 20260510000411 | 53 | 225 | 3.5 | 4.3 | 0.04 | 0.65 | 0.00 | 92 | 1011.4 |
| 20260509235910 | 53 | 247 | 4.3 | 4.3 | 0.04 | 0.65 | 0.00 | 92 | 1011.4 |
| 20260509235409 | 53 | 292 | 0.9 | 3.5 | 0.04 | 0.65 | 0.00 | 92 | 1011.5 |
| 20260509234909 | 53 | 292 | 0.9 | 3.5 | 0.02 | 0.63 | 0.00 | 92 | 1011.6 |
| 20260509234409 | 53 | 292 | 0.0 | 7.8 | 0.02 | 0.63 | 0.00 | 92 | 1011.6 |
| 20260509233908 | 53 | 315 | 7.8 | 7.8 | 0.02 | 0.63 | 0.00 | 92 | 1011.6 |
| 20260509233408 | 53 | 315 | 1.7 | 6.1 | 0.02 | 0.63 | 0.00 | 92 | 1011.7 |
| 20260509232908 | 53 | 292 | 2.6 | 5.2 | 0.04 | 0.63 | 0.00 | 92 | 1011.7 |
| 20260509232408 | 53 | 292 | 1.7 | 3.5 | 0.06 | 0.63 | 0.00 | 92 | 1011.7 |
| 20260509231907 | 53 | 292 | 0.9 | 3.5 | 0.08 | 0.63 | 0.00 | 92 | 1011.7 |
| 20260509231407 | 53 | 247 | 2.6 | 4.3 | 0.08 | 0.61 | 0.00 | 92 | 1011.7 |
| 20260509230907 | 53 | 315 | 1.7 | 3.5 | 0.10 | 0.61 | 0.00 | 92 | 1011.8 |
| 20260509230406 | 53 | 292 | 0.0 | 2.6 | 0.10 | 0.61 | 0.00 | 92 | 1011.9 |
| 20260509225906 | 53 | 315 | 0.0 | 1.7 | 0.10 | 0.61 | 0.00 | 92 | 1011.9 |
| 20260509225406 | 53 | 315 | 0.0 | 1.7 | 0.12 | 0.61 | 0.00 | 92 | 1011.9 |
| 20260509224905 | 53 | 315 | 1.7 | 2.6 | 0.12 | 0.61 | 0.00 | 92 | 1011.9 |
| 20260509224405 | 53 | 315 | 0.0 | 2.6 | 0.12 | 0.61 | 0.00 | 92 | 1011.9 |
| 20260509223905 | 53 | 315 | 0.9 | 3.5 | 0.12 | 0.61 | 0.00 | 92 | 1011.9 |
| 20260509223405 | 53 | 315 | 0.9 | 2.6 | 0.10 | 0.59 | 0.00 | 92 | 1012.0 |
| 20260509222904 | 53 | 315 | 1.7 | 3.5 | 0.12 | 0.59 | 0.00 | 92 | 1012.0 |
| 20260509222404 | 53 | 292 | 2.6 | 5.2 | 0.08 | 0.55 | 0.00 | 92 | 1012.0 |
| 20260509221904 | 53 | 292 | 1.7 | 5.2 | 0.08 | 0.55 | 0.00 | 92 | 1011.9 |
| 20260509221403 | 53 | 315 | 1.7 | 2.6 | 0.04 | 0.50 | 0.00 | 92 | 1011.9 |
| 20260509220903 | 53 | 315 | 2.6 | 2.6 | 0.06 | 0.50 | 0.00 | 91 | 1011.9 |
| 20260509220403 | 53 | 315 | 0.9 | 3.5 | 0.06 | 0.50 | 0.00 | 91 | 1011.9 |
| 20260509215903 | 53 | 225 | 0.0 | 4.3 | 0.06 | 0.48 | 0.00 | 91 | 1012.0 |
| 20260509215402 | 53 | 202 | 3.5 | 6.1 | 0.06 | 0.48 | 0.00 | 91 | 1012.0 |
| 20260509214902 | 53 | 292 | 0.0 | 1.7 | 0.06 | 0.48 | 0.00 | 91 | 1012.0 |
| 20260509214402 | 53 | 292 | 0.9 | 1.7 | 0.06 | 0.48 | 0.00 | 91 | 1012.0 |
| 20260509213901 | 53 | 292 | 1.7 | 1.7 | 0.06 | 0.48 | 0.00 | 91 | 1011.9 |
| 20260509213401 | 53 | 292 | 1.7 | 2.6 | 0.04 | 0.46 | 0.00 | 91 | 1012.0 |
| 20260509212901 | 53 | 292 | 1.7 | 1.7 | 0.06 | 0.48 | 0.00 | 91 | 1012.0 |
| 20260509212400 | 53 | 292 | 0.0 | 2.6 | 0.06 | 0.48 | 0.00 | 91 | 1012.1 |
| 20260509211900 | 53 | 292 | 0.0 | 3.5 | 0.08 | 0.48 | 0.00 | 91 | 1012.1 |
| 20260509211400 | 53 | 292 | 0.0 | 2.6 | 0.08 | 0.48 | 0.00 | 91 | 1012.0 |
| 20260509210900 | 53 | 292 | 2.6 | 2.6 | 0.06 | 0.46 | 0.00 | 91 | 1012.1 |
| 20260509210359 | 53 | 292 | 1.7 | 4.3 | 0.06 | 0.46 | 0.00 | 91 | 1012.1 |
| 20260509205859 | 53 | 292 | 0.9 | 3.5 | 0.04 | 0.44 | 0.00 | 91 | 1012.0 |
| 20260509205359 | 53 | 292 | 2.6 | 5.2 | 0.06 | 0.44 | 0.00 | 91 | 1012.1 |
| 20260509204858 | 53 | 292 | 0.0 | 5.2 | 0.06 | 0.44 | 0.00 | 91 | 1012.0 |
| 20260509204358 | 53 | 292 | 5.2 | 5.2 | 0.08 | 0.44 | 0.00 | 91 | 1012.1 |
| 20260509203858 | 53 | 292 | 0.0 | 3.5 | 0.08 | 0.44 | 0.00 | 91 | 1012.0 |
| 20260509203358 | 53 | 292 | 0.9 | 3.5 | 0.08 | 0.42 | 0.00 | 91 | 1012.0 |
| 20260509202857 | 54 | 292 | 1.7 | 7.0 | 0.08 | 0.44 | 0.00 | 91 | 1012.0 |
| 20260509202357 | 54 | 292 | 0.9 | 4.3 | 0.08 | 0.44 | 0.00 | 91 | 1012.1 |
| 20260509201857 | 54 | 292 | 2.6 | 8.7 | 0.06 | 0.42 | 0.00 | 91 | 1012.0 |
| 20260509201356 | 54 | 247 | 0.9 | 6.1 | 0.06 | 0.42 | 0.00 | 91 | 1011.9 |
| 20260509200856 | 54 | 225 | 2.6 | 4.3 | 0.06 | 0.42 | 0.00 | 91 | 1011.9 |
| 20260509200356 | 54 | 292 | 0.0 | 3.5 | 0.08 | 0.42 | 0.00 | 91 | 1011.9 |
| 20260509195856 | 54 | 292 | 0.9 | 3.5 | 0.06 | 0.40 | 0.00 | 91 | 1011.9 |
| 20260509195355 | 54 | 315 | 0.0 | 2.6 | 0.08 | 0.40 | 0.00 | 91 | 1011.9 |
| 20260509194855 | 55 | 315 | 0.0 | 1.7 | 0.08 | 0.40 | 0.00 | 91 | 1011.9 |
| 20260509194355 | 55 | 315 | 0.0 | 3.5 | 0.06 | 0.38 | 0.00 | 91 | 1011.9 |
| 20260509193854 | 55 | 0 | 1.7 | 3.5 | 0.06 | 0.38 | 0.00 | 91 | 1011.9 |
| 20260509193354 | 55 | 22 | 1.7 | 5.2 | 0.04 | 0.36 | 0.00 | 90 | 1011.8 |
| 20260509192854 | 55 | 0 | 1.7 | 2.6 | 0.04 | 0.38 | 0.00 | 90 | 1011.8 |
| 20260509192353 | 55 | 0 | 0.9 | 2.6 | 0.04 | 0.38 | 0.00 | 100 | 1011.7 |
| 20260509191853 | 55 | 0 | 0.9 | 2.6 | 0.04 | 0.38 | 0.00 | 91 | 1011.6 |
| 20260509191353 | 56 | 337 | 0.9 | 2.6 | 0.04 | 0.38 | 0.00 | 91 | 1011.7 |
| 20260509190853 | 56 | 0 | 0.9 | 2.6 | 0.04 | 0.38 | 0.00 | 91 | 1011.7 |
| 20260509190352 | 56 | 0 | 0.9 | 3.5 | 0.02 | 0.36 | 0.00 | 91 | 1011.6 |
| 20260509185852 | 56 | 337 | 3.5 | 3.5 | 0.00 | 0.34 | 0.00 | 90 | 1011.7 |
| 20260509185352 | 56 | 337 | 1.7 | 2.6 | 0.00 | 0.34 | 0.00 | 90 | 1011.6 |
| 20260509184851 | 56 | 0 | 0.9 | 4.3 | 0.00 | 0.34 | 0.00 | 90 | 1011.4 |
| 20260509184351 | 56 | 337 | 1.7 | 3.5 | 0.00 | 0.34 | 0.00 | 90 | 1011.5 |
| 20260509183851 | 57 | 292 | 3.5 | 3.5 | 0.00 | 0.34 | 0.00 | 90 | 1011.4 |
| 20260509183351 | 57 | 292 | 1.7 | 1.7 | 0.00 | 0.34 | 0.00 | 90 | 1011.4 |
| 20260509182850 | 57 | 292 | 0.9 | 2.6 | 0.00 | 0.36 | 0.00 | 90 | 1011.3 |
| 20260509182350 | 57 | 292 | 1.7 | 1.7 | 0.00 | 0.36 | 0.00 | 90 | 1011.3 |
| 20260509181850 | 57 | 292 | 0.9 | 3.5 | 0.00 | 0.36 | 0.00 | 90 | 1011.3 |
| 20260509181349 | 57 | 292 | 1.7 | 2.6 | 0.00 | 0.36 | 0.00 | 90 | 1011.3 |
| 20260509180849 | 57 | 292 | 0.0 | 3.5 | 0.00 | 0.36 | 0.00 | 90 | 1011.1 |
| 20260509180349 | 57 | 315 | 2.6 | 2.6 | 0.00 | 0.36 | 0.00 | 90 | 1011.1 |
| 20260509175848 | 57 | 292 | 0.9 | 1.7 | 0.00 | 0.36 | 0.00 | 90 | 1011.0 |
| 20260509175348 | 57 | 292 | 1.7 | 1.7 | 0.00 | 0.36 | 0.00 | 90 | 1011.0 |
| 20260509174848 | 57 | 292 | 1.7 | 1.7 | 0.00 | 0.36 | 0.00 | 90 | 1010.9 |
| 20260509174348 | 57 | 292 | 1.7 | 1.7 | 0.00 | 0.36 | 0.00 | 90 | 1010.8 |
| 20260509173847 | 57 | 315 | 1.7 | 1.7 | 0.00 | 0.36 | 0.00 | 90 | 1010.9 |
| 20260509173347 | 57 | 315 | 0.9 | 1.7 | 0.00 | 0.36 | 0.00 | 90 | 1010.8 |
| 20260509172847 | 57 | 315 | 0.9 | 2.6 | 0.00 | 0.36 | 0.00 | 90 | 1010.8 |
| 20260509172346 | 57 | 315 | 0.9 | 1.7 | 0.00 | 0.36 | 0.00 | 89 | 1010.8 |
| 20260509171846 | 57 | 315 | 0.0 | 3.5 | 0.00 | 0.36 | 0.00 | 89 | 1010.8 |
| 20260509171346 | 57 | 337 | 0.0 | 1.7 | 0.00 | 0.36 | 0.00 | 89 | 1010.7 |
| 20260509170846 | 57 | 337 | 0.0 | 1.7 | 0.00 | 0.36 | 0.00 | 89 | 1010.7 |
| 20260509170345 | 57 | 337 | 0.0 | 0.9 | 0.00 | 0.36 | 0.00 | 89 | 1010.6 |
| 20260509165845 | 57 | 337 | 0.0 | 0.9 | 0.00 | 0.36 | 0.00 | 89 | 1010.5 |
| 20260509165345 | 57 | 337 | 0.9 | 2.6 | 0.00 | 0.36 | 0.00 | 89 | 1010.5 |
| 20260509164844 | 57 | 337 | 0.9 | 2.6 | 0.00 | 0.36 | 0.00 | 89 | 1010.5 |
| 20260509164344 | 57 | 0 | 0.9 | 1.7 | 0.00 | 0.36 | 0.00 | 89 | 1010.4 |
| 20260509163844 | 57 | 22 | 0.0 | 1.7 | 0.00 | 0.36 | 0.00 | 89 | 1010.4 |
| 20260509163343 | 58 | 22 | 0.9 | 0.9 | 0.00 | 0.36 | 0.00 | 89 | 1010.3 |
| 20260509162843 | 58 | 22 | 0.9 | 0.9 | 0.00 | 0.36 | 0.00 | 89 | 1010.2 |
| 20260509162343 | 57 | 22 | 0.0 | 0.9 | 0.00 | 0.36 | 0.00 | 89 | 1010.2 |
| 20260509161843 | 57 | 22 | 0.9 | 0.9 | 0.00 | 0.36 | 0.00 | 89 | 1010.2 |
| 20260509161342 | 57 | 45 | 0.0 | 0.9 | 0.00 | 0.36 | 0.00 | 89 | 1010.2 |
| 20260509160842 | 57 | 22 | 0.9 | 1.7 | 0.00 | 0.36 | 0.00 | 89 | 1010.2 |
| 20260509160342 | 57 | 22 | 0.0 | 1.7 | 0.00 | 0.36 | 0.00 | 89 | 1010.2 |
| 20260509155841 | 58 | 22 | 1.7 | 1.7 | 0.00 | 0.36 | 0.00 | 89 | 1010.2 |
| 20260509155341 | 58 | 45 | 0.0 | 0.9 | 0.00 | 0.36 | 0.00 | 89 | 1010.1 |
| 20260509154841 | 58 | 45 | 0.0 | 1.7 | 0.00 | 0.36 | 0.00 | 89 | 1010.1 |
| 20260509154341 | 58 | 45 | 0.9 | 1.7 | 0.00 | 0.36 | 0.00 | 89 | 1010.0 |
| 20260509153840 | 58 | 45 | 1.7 | 1.7 | 0.00 | 0.36 | 0.00 | 89 | 1009.9 |
| 20260509153340 | 58 | 45 | 0.0 | 0.0 | 0.00 | 0.36 | 0.00 | 89 | 1010.0 |
| 20260509152840 | 57 | 45 | 0.0 | 0.0 | 0.00 | 0.36 | 0.00 | 89 | 1010.0 |
| 20260509152339 | 57 | 45 | 0.0 | 2.6 | 0.00 | 0.36 | 0.00 | 89 | 1010.0 |
| 20260509151839 | 58 | 67 | 0.9 | 4.3 | 0.00 | 0.36 | 0.00 | 88 | 1010.0 |
| 20260509151339 | 58 | 67 | 0.9 | 2.6 | 0.02 | 0.36 | 0.00 | 88 | 1010.0 |
| 20260509150838 | 58 | 67 | 0.9 | 3.5 | 0.02 | 0.36 | 0.00 | 88 | 1010.0 |
| 20260509150338 | 58 | 22 | 1.7 | 3.5 | 0.02 | 0.36 | 0.00 | 88 | 1010.0 |
| 20260509145838 | 58 | 67 | 2.6 | 3.5 | 0.02 | 0.36 | 0.00 | 88 | 1009.8 |
| 20260509145338 | 58 | 337 | 1.7 | 3.5 | 0.02 | 0.36 | 0.00 | 88 | 1009.8 |
| 20260509144837 | 58 | 45 | 1.7 | 4.3 | 0.02 | 0.36 | 0.00 | 88 | 1009.9 |
| 20260509144337 | 58 | 67 | 0.9 | 5.2 | 0.02 | 0.36 | 0.00 | 89 | 1009.9 |
| 20260509143837 | 58 | 22 | 3.5 | 3.5 | 0.02 | 0.36 | 0.00 | 89 | 1009.9 |
| 20260509143336 | 58 | 0 | 0.9 | 1.7 | 0.02 | 0.36 | 0.00 | 89 | 1009.9 |
| 20260509142836 | 57 | 22 | 1.7 | 2.6 | 0.02 | 0.36 | 0.00 | 88 | 1009.9 |
| 20260509142336 | 57 | 45 | 0.9 | 2.6 | 0.02 | 0.36 | 0.00 | 88 | 1009.9 |
| 20260509141836 | 57 | 45 | 0.9 | 3.5 | 0.02 | 0.36 | 0.00 | 88 | 1009.9 |
| 20260509141335 | 58 | 45 | 0.9 | 3.5 | 0.00 | 0.34 | 0.00 | 87 | 1009.9 |
| 20260509140835 | 58 | 45 | 2.6 | 5.2 | 0.00 | 0.34 | 0.00 | 87 | 1009.9 |
| 20260509140335 | 58 | 45 | 2.6 | 5.2 | 0.00 | 0.34 | 0.00 | 87 | 1009.8 |
| 20260509135834 | 58 | 67 | 2.6 | 7.0 | 0.00 | 0.34 | 0.00 | 87 | 1009.6 |
| 20260509135334 | 59 | 45 | 3.5 | 6.1 | 0.00 | 0.34 | 0.00 | 87 | 1009.6 |
| 20260509134834 | 59 | 45 | 6.1 | 6.1 | 0.00 | 0.34 | 0.00 | 88 | 1009.7 |
| 20260509134333 | 59 | 45 | 6.1 | 7.0 | 0.00 | 0.34 | 0.00 | 88 | 1009.6 |
| 20260509133833 | 58 | 45 | 1.7 | 6.1 | 0.00 | 0.34 | 0.00 | 89 | 1009.6 |
| 20260509133333 | 58 | 22 | 0.0 | 3.5 | 0.00 | 0.34 | 0.00 | 89 | 1009.6 |
| 20260509132833 | 58 | 0 | 0.0 | 3.5 | 0.00 | 0.34 | 0.00 | 89 | 1009.6 |
| 20260509132332 | 58 | 45 | 1.7 | 5.2 | 0.00 | 0.34 | 0.00 | 89 | 1009.5 |
| 20260509131832 | 58 | 45 | 0.9 | 3.5 | 0.00 | 0.34 | 0.00 | 89 | 1009.7 |
| 20260509131332 | 58 | 337 | 0.0 | 5.2 | 0.02 | 0.34 | 0.00 | 89 | 1009.7 |
| 20260509130831 | 58 | 337 | 1.7 | 3.5 | 0.02 | 0.34 | 0.00 | 89 | 1009.7 |
| 20260509130331 | 58 | 337 | 0.0 | 4.3 | 0.02 | 0.34 | 0.00 | 89 | 1009.6 |
| 20260509125831 | 58 | 0 | 1.7 | 5.2 | 0.04 | 0.34 | 0.00 | 90 | 1009.8 |
| 20260509125331 | 58 | 22 | 0.9 | 5.2 | 0.14 | 0.34 | 0.00 | 90 | 1009.8 |
| 20260509124830 | 58 | 22 | 2.6 | 7.0 | 0.14 | 0.34 | 0.00 | 90 | 1009.9 |
| 20260509124330 | 58 | 45 | 0.9 | 2.6 | 0.16 | 0.34 | 0.00 | 90 | 1009.9 |
| 20260509123830 | 58 | 45 | 0.0 | 5.2 | 0.16 | 0.34 | 0.00 | 90 | 1010.0 |
| 20260509123329 | 58 | 45 | 1.7 | 4.3 | 0.18 | 0.34 | 0.00 | 90 | 1010.1 |
| 20260509122829 | 57 | 45 | 1.7 | 4.3 | 0.18 | 0.34 | 0.00 | 90 | 1010.0 |
| 20260509122329 | 58 | 45 | 3.5 | 4.3 | 0.18 | 0.34 | 0.00 | 89 | 1010.2 |
| 20260509121828 | 57 | 0 | 1.7 | 1.7 | 0.18 | 0.34 | 0.00 | 89 | 1010.1 |
| 20260509121328 | 57 | 0 | 1.7 | 2.6 | 0.16 | 0.32 | 0.00 | 89 | 1010.1 |
| 20260509120828 | 57 | 337 | 0.0 | 2.6 | 0.16 | 0.32 | 0.00 | 89 | 1010.3 |